Location: Juzet
(42.9779°N, 0.7597°E)
Time: 16:53:00
(UTC+00:00)

Cosmos 2034 Rocket - Pass Details

Date: 14 July 2020
Orbit: 959 x 1000 km, 82.9° (Epoch: 13 August)

Event Time Altitude Azimuth Distance (km) Brightness Sun altitude
Exits shadow 03:53:47 - 198° (SSW) 3,534 6.4 -6.4°
Reaches altitude 10° 03:56:04 10° 202° (SSW) 2,684 5.8 -6.1°
Maximum altitude 04:02:07 59° 281° (W) 1,102 4.1 -5.2°
Drops below altitude 10° 04:08:13 10° 1° (N) 2,709 6.9 -4.3°
Sets 04:10:47 0° 5° (N) 3,664 7.6 -3.9°
